COSMOS 2297

Satellite information

Favourite Embed

Satellite Type and Status

PAYLOADIN ORBIT

Key statistics

Satellite COSMOS 2297 at a glance.

Uptime

11121

Days in orbit

Revolutions

≈ 14.1

Per day

Orbit

LEO

Low Earth Orbit

Inclination

71.0

Latest

Satellite identification and parameters

Extended collection of information and parameters for COSMOS 2297.

Object identification

Identified? True

Debris? False

Object name: COSMOS 2297

International designator: 1994-077A

Object number (NORAD): 23404

Object ID (CCSDS): 23404

Country: COMMONWEALTH OF INDEPENDENT STATES (CIS)

Current information (Y/N): Y

RCS size: LARGE

Orbital parameters

Period: 101.849 minutes

Inclination: 71.0151 deg

SMA: 7224.331 km

Apoapsis: 855.835 km

Periapsis: 836.557 km

RAAN: 25.9162 deg

Eccentricy: 0.0013343

Argument of periapsis: 98.161 deg

Mean anomaly: 262.1026 deg

Mean motion: 14.13859691 rev/day

Mean motion (dot): -0.00000118 rev/day2

B* drag term: -0.000037034 1/REarth

Two-line elements (TLE)

Creation date: May 5, 2025, 2:11 a.m.

Reference frame: TEME

Reference center: EARTH

Epoch: May 4, 2025, 10:11 p.m. UTC

TLE line 0: 0 COSMOS 2297

TLE line 1: 1 23404U 94077A 25124.92456114 -.00000118 00000-0 -37034-4 0 9999

TLE line 2: 2 23404 71.0151 25.9162 0013343 98.1610 262.1026 14.13859691570844

Live tracking on map

Real-time ground track for satellite COSMOS 2297.

In-orbit conjunctions

A list of the most updated potential collisions computed for object COSMOS 2297.

Target Orbit TCA Probability of collision Miss distance Type
THORAD AGENA D DEB SSO 2025-01-13 11:01:10 0.0001003282 788.0 (m) DEBRIS
DMSP 5D-2 F13 DEB SSO 2024-10-09 05:57:18 0.0002071708 106.0 (m) DEBRIS
FENGYUN 1C DEB SSO 2024-09-25 22:50:45 0.0002777774 214.0 (m) DEBRIS
FENGYUN 1C DEB SSO 2024-09-05 17:59:25 0.0008470244 334.0 (m) DEBRIS
FENGYUN 1C DEB SSO 2024-06-05 21:44:09 0.0001070596 162.0 (m) DEBRIS

Associated space launch

Second generation ELING satellite

COSMOS 2297 was lifted into orbit during the mission ‘Zenit-2 | Tselina-2 16’, on board a Zenit-2 space rocket.

The launch took place on Nov. 24, 1994, 9:15 a.m. from 45/1.

For more information about the launch, click the button.

Launch to space Zenit-2 | Tselina-2 16
Zenit-2 | Tselina-2 16

Agency: N/A

Status: Launch Successful

Launch date: Nov. 24, 1994, 9:15 a.m. UTC

Rocket: Zenit-2

Launch pad: 45/1

Location: Baikonur Cosmodrome, Republic of Kazakhstan

...

Latest news about this satellite

There are no fresh news available about this satellite. Check back as we update our databases every day.


Newsletter sign-up

Weekly statistics, charts and insights to help you stay on top of the space industry.